This demonstration page uses our WeatherBlox Daily Observations layout. Learn more.

Left ArrowRight Arrow

44.8408, -93.29828

Hourly Observations for November 29, 2022

Temp ( °F °C ) Dew Point ( °F °C ) Humidity (%) Winds ( mph kmh ) Pressure ( in mb ) Visibility ( mi km ) Precip ( " mm )
12:53 am 00:53 Cloudy 33 0.6 27 -2.8 78 78 NNW 8 13 29.77 1008 10 16 0.00 0.00
1:53 am 01:53 Mostly Cloudy 33 0.6 25 -3.9 72 72 NW 7 11 29.77 1008 10 16 0.00 0.00
2:53 am 02:53 Cloudy 33 0.6 23 -5 66 66 NNW 7 11 29.77 1008 10 16 0.00 0.00
3:53 am 03:53 Cloudy 32 0 24 -4.4 72 72 N 5 7 29.77 1008 10 16 0.00 0.00
4:53 am 04:53 Cloudy 32 0 22 -5.6 66 66 N 6 9 29.75 1008 10 16 0.00 0.00
5:53 am 05:53 Cloudy 32 0 21 -6.1 63 63 N 9 15 29.74 1007 10 16 0.00 0.00
6:17 am 06:17 Cloudy with Light Snow 31 -0.6 20 -6.7 63 63 NNW 13 20 29.76 1008 5 8 0.01 0.13
6:23 am 06:23 Cloudy with Light Snow 30 -1.1 21 -6.1 69 69 N 12 19 29.76 1008 3 4 0.01 0.13
6:34 am 06:34 Cloudy with Light Snow 29 -1.7 22 -5.6 75 75 N 9 15 29.76 1008 2 2 0.01 0.13
6:48 am 06:48 Cloudy with Light Snow 28 -2 23 -5 80 80 N 8 13 29.76 1008 1 2 0.01 0.25
6:53 am 06:53 Partly Cloudy with Isolated Snow Showers 28 -2.2 24 -4.4 85 85 N 8 13 29.74 1007 1 2 0.01 0.25
7:18 am 07:18 Partly Cloudy with Isolated Snow Showers 28 -2.2 25 -3.9 88 88 N 5 7 29.75 1008 1 1 0.01 0.25
7:53 am 07:53 Partly Cloudy with Isolated Snow Showers 28 -2.2 25 -3.9 88 88 N 7 11 29.73 1007 1 1 0.05 1.27
8:24 am 08:24 Partly Cloudy with Snow 28 -2.2 25 -3.9 88 88 NNE 8 13 29.76 1008 1 1 0.03 0.76
8:40 am 08:40 Partly Cloudy with Isolated Snow Showers 27 -2.8 25 -3.9 92 92 N 9 15 29.75 1008 1 1 0.06 1.52
8:53 am 08:53 Partly Cloudy with Isolated Snow Showers 27 -2.8 24 -4.4 89 89 N 12 19 29.72 1006 1 1 0.07 1.78
9:10 am 09:10 Partly Cloudy with Isolated Snow Showers 27 -2.8 24 -4.4 89 89 N 10 17 29.74 1007 1 2 0.02 0.51
9:18 am 09:18 Partly Cloudy with Isolated Snow Showers 27 -2.8 24 -4.4 89 89 N 10 17 29.74 1007 1 1 0.02 0.51
9:53 am 09:53 Partly Cloudy with Isolated Snow Showers 27 -2.8 24 -4.4 89 89 N 12 19 29.70 1006 1 1 0.05 1.27
10:07 am 10:07 Partly Cloudy with Isolated Snow Showers 27 -2.8 24 -4.4 89 89 N 13 20 29.72 1006 1 1 0.02 0.51
10:26 am 10:26 Cloudy with Snow 27 -2.8 24 -4.4 89 89 N 10 17 29.70 1006 1 1 0.03 0.76
10:53 am 10:53 Cloudy with Light Snow 27 -2.8 23 -5 85 85 N 15 24 29.65 1004 1 1 0.05 1.27
11:24 am 11:24 Partly Cloudy with Snow 26 -3.3 23 -5 88 88 NNW 14 22 29.67 1005 1 1 0.02 0.51
11:36 am 11:36 Partly Cloudy with Heavy Snow 26 -3.3 23 -5 88 88 NNW 9 15 29.67 1005 0 0 0.03 0.76
11:53 am 11:53 Partly Cloudy with Snow 26 -3.3 23 -5 88 88 N 13 20 29.63 1003 0 0 0.05 1.27
12:00 pm 12:00 Partly Cloudy with Heavy Snow 26 -3.3 23 -5 88 88 NNW 12 19 29.67 1005 0 0 0.02 0.51
12:07 pm 12:07 Partly Cloudy with Heavy Snow 26 -3.3 23 -5 88 88 NNW 14 22 29.67 1005 0 0 0.05 1.27
12:18 pm 12:18 Partly Cloudy with Snow 25 -3.9 23 -5 92 92 NNW 13 20 29.67 1005 0 0 0.07 1.78
12:31 pm 12:31 Partly Cloudy with Heavy Snow 25 -3.9 23 -5 92 92 NNW 12 19 29.66 1004 0 0 0.09 2.29
12:53 pm 12:53 Partly Cloudy with Snow 25 -3.9 22 -5.6 88 88 NW 12 19 29.63 1003 0 0 0.13 3.30
1:01 pm 13:01 Partly Cloudy with Heavy Snow 25 -3.9 23 -5 92 92 NW 13 20 29.66 1004 0 0 0.02 0.51
1:53 pm 13:53 Partly Cloudy with Snow 25 -3.9 22 -5.6 88 88 NW 14 22 29.62 1003 0 0 0.13 3.30
2:01 pm 14:01 Partly Cloudy with Snow 25 -3.9 22 -5.6 88 88 NW 15 24 29.65 1004 1 1 0.01 0.25
2:07 pm 14:07 Partly Cloudy with Snow 25 -3.9 21 -6.1 85 85 NW 17 28 29.65 1004 1 1 0.02 0.51
2:29 pm 14:29 Partly Cloudy with Snow 24 -4.4 20 -6.7 84 84 NW 15 24 29.66 1004 1 1 0.04 1.02
2:40 pm 14:40 Partly Cloudy with Isolated Snow Showers 24 -4.4 19 -7.2 81 81 NW 20 31 29.66 1004 1 1 0.04 1.02
2:53 pm 14:53 Partly Cloudy with Isolated Snow Showers 23 -5 20 -6.7 88 88 NW 17 28 29.64 1004 1 1 0.19 4.83
3:25 pm 15:25 Partly Cloudy with Isolated Snow Showers 23 -5 19 -7.2 84 84 NW 16 26 29.67 1005 1 2 0.04 1.02
3:53 pm 15:53 Cloudy with Light Snow 23 -5 19 -7.2 84 84 NW 17 28 29.65 1004 1 2 0.04 1.02
4:21 pm 16:21 Cloudy with Light Snow 23 -5 18 -7.8 81 81 NW 14 22 29.69 1006 7 11 0.01 0.13
4:33 pm 16:33 Cloudy 23 -5 18 -7.8 81 81 WNW 14 22 29.71 1006 10 16 0.01 0.13
4:53 pm 16:53 Cloudy 23 -5 17 -8.3 78 78 WNW 12 19 29.68 1005 9 14 0.04 1.02
5:53 pm 17:53 Cloudy 22 -5.6 13 -10.6 68 68 WNW 17 28 29.71 1006 10 16 0.00 0.00
6:53 pm 18:53 Mostly Cloudy 20 -6.7 12 -11.1 71 71 WNW 17 28 29.73 1007 10 16 0.00 0.00
7:26 pm 19:26 Cloudy 20 -6.7 12 -11.1 71 71 WNW 16 26 29.78 1008 10 16 0.00 0.00
7:53 pm 19:53 Cloudy with Light Snow 21 -6.1 12 -11.1 68 68 WNW 10 17 29.75 1008 10 16 0.06 1.52
8:53 pm 20:53 Cloudy with Light Snow 22 -5.6 13 -10.6 68 68 WNW 18 30 29.76 1008 9 14 0.85 21.59
9:27 pm 21:27 Cloudy 21 -6.1 13 -10.6 70 70 WNW 16 26 29.81 1009 10 16 0.07 1.78
9:53 pm 21:53 Cloudy 22 -5.6 13 -10.6 68 68 W 16 26 29.78 1009 10 16 0.32 8.13
10:53 pm 22:53 Cloudy 22 -5.6 14 -10 71 71 W 16 26 29.79 1009 10 16 0.20 5.08
11:53 pm 23:53 Cloudy 22 -5.6 14 -10 71 71 WNW 17 28 29.80 1009 10 16 0.00 0.00

Powered by AerisWeather